QPF
0.01 0.01 0.01 0.01 0.01 0.01 0.01 0.01 0.00 0.00 0.00 0.01 0.00 0.00 0.01 0.01 0.01 0.01 0.01 0.01 0.01 0.02 0.01 0.02 0.02 0.01 0.02 0.03 0.04 0.04 0.04 0.04 0.04 0.04 0.03 0.02 0.02 0.03 0.03 0.03 0.03 0.03 0.03 0.02
0.01 0.01 0.01 0.01 0.01 0.01 0.01 0.01 0.01 0.00 0.00 0.01 0.00 0.01 0.01 0.01 0.01 0.02 0.01 0.01 0.02 0.03 0.03 0.03 0.03 0.03 0.03 0.04 0.06 0.07 0.06 0.06 0.05 0.04 0.04 0.03 0.03 0.04 0.04 0.05 0.04 0.04 0.04 0.03
0.01 0.01 0.01 0.01 0.01 0.01 0.01 0.01 0.01 0.01 0.01 0.01 0.01 0.01 0.01 0.01 0.01 0.02 0.02 0.02 0.02 0.03 0.04 0.03 0.03 0.04 0.06 0.08 0.09 0.09 0.08 0.10 0.10 0.07 0.07 0.07 0.06 0.05 0.07 0.10 0.09 0.06 0.06 0.05
0.02 0.02 0.02 0.02 0.01 0.01 0.01 0.01 0.01 0.01 0.01 0.01 0.01 0.02 0.02 0.03 0.03 0.03 0.02 0.02 0.03 0.04 0.05 0.04 0.04 0.06 0.07 0.10 0.09 0.09 0.11 0.12 0.12 0.10 0.10 0.11 0.12 0.10 0.10 0.11 0.11 0.10 0.09 0.08
0.04 0.03 0.02 0.02 0.02 0.01 0.01 0.01 0.01 0.01 0.02 0.03 0.02 0.03 0.06 0.07 0.06 0.04 0.04 0.04 0.04 0.04 0.04 0.04 0.04 0.06 0.08 0.10 0.11 0.13 0.13 0.11 0.10 0.09 0.09 0.09 0.09 0.08 0.08 0.10 0.11 0.11 0.11 0.11
0.06 0.05 0.03 0.03 0.03 0.03 0.04 0.03 0.02 0.02 0.04 0.05 0.06 0.05 0.06 0.08 0.08 0.06 0.05 0.04 0.04 0.04 0.04 0.04 0.04 0.05 0.08 0.10 0.12 0.13 0.13 0.11 0.11 0.10 0.09 0.07 0.05 0.05 0.07 0.08 0.08 0.08 0.08 0.12
0.05 0.05 0.04 0.05 0.05 0.06 0.06 0.04 0.04 0.05 0.07 0.08 0.09 0.09 0.09 0.10 0.09 0.06 0.04 0.03 0.03 0.03 0.04 0.04 0.04 0.04 0.06 0.08 0.10 0.11 0.12 0.13 0.13 0.12 0.11 0.09 0.08 0.08 0.09 0.09 0.10 0.09 0.09 0.12
0.06 0.06 0.05 0.05 0.07 0.08 0.06 0.05 0.06 0.08 0.10 0.11 0.10 0.10 0.11 0.12 0.10 0.06 0.03 0.02 0.02 0.02 0.02 0.03 0.04 0.04 0.05 0.06 0.07 0.07 0.08 0.11 0.14 0.15 0.13 0.11 0.11 0.12 0.13 0.14 0.14 0.13 0.12 0.12
0.08 0.08 0.10 0.09 0.10 0.08 0.06 0.07 0.08 0.11 0.12 0.11 0.13 0.15 0.14 0.12 0.09 0.05 0.03 0.02 0.01 0.02 0.02 0.01 0.02 0.03 0.05 0.05 0.05 0.05 0.07 0.08 0.11 0.12 0.11 0.10 0.12 0.14 0.17 0.18 0.17 0.16 0.14 0.13
0.09 0.09 0.11 0.13 0.14 0.11 0.09 0.09 0.11 0.13 0.12 0.12 0.13 0.15 0.15 0.13 0.09 0.06 0.04 0.02 0.02 0.02 0.01 0.01 0.01 0.01 0.02 0.01 0.01 0.02 0.02 0.03 0.04 0.05 0.05 0.05 0.05 0.07 0.10 0.11 0.13 0.14 0.14 0.12
0.10 0.10 0.11 0.14 0.14 0.14 0.12 0.12 0.15 0.15 0.13 0.11 0.10 0.12 0.13 0.11 0.10 0.07 0.04 0.03 0.02 0.01 0.01 0.01 0.01 0.00 0.00 0.00 0.00 0.00 0.01 0.02 0.02 0.04 0.05 0.06 0.07 0.07 0.07 0.07 0.08 0.10 0.11 0.10
0.12 0.11 0.12 0.15 0.18 0.19 0.18 0.15 0.16 0.17 0.15 0.13 0.11 0.11 0.10 0.09 0.08 0.06 0.04 0.03 0.02 0.02 0.01 0.01 0.00 0.00 0.00 0.00 0.00 0.00 0.01 0.02 0.04 0.06 0.08 0.08 0.07 0.07 0.06 0.05 0.05 0.05 0.05 0.05
0.11 0.11 0.10 0.10 0.14 0.19 0.20 0.16 0.16 0.15 0.13 0.13 0.10 0.06 0.06 0.06 0.06 0.05 0.03 0.02 0.01 0.01 0.00 0.00 0.00 0.00 0.00 0.00 0.00 0.00 0.00 0.01 0.01 0.02 0.04 0.05 0.04 0.03 0.03 0.03 0.02 0.02 0.01 0.01
0.12 0.13 0.12 0.10 0.12 0.14 0.19 0.16 0.12 0.10 0.08 0.06 0.04 0.03 0.03 0.02 0.02 0.02 0.02 0.01 0.01 0.00 0.00 0.00 0.00 0.00 0.00 0.00 0.00 0.00 0.00 0.00 0.00 0.00 0.00 0.00 0.00 0.00 0.01 0.01 0.01 0.01 0.01 0.01
0.12 0.13 0.12 0.08 0.08 0.10 0.14 0.14 0.09 0.06 0.04 0.02 0.02 0.02 0.01 0.01 0.01 0.01 0.01 0.01 0.00 0.00 0.00 0.00 0.00 0.00 0.00 0.00 0.00 0.00 0.00 0.00 0.00 0.00 0.00 0.00 0.00 0.00 0.00 0.00 0.00 0.00 0.00 0.00
0.07 0.09 0.10 0.09 0.08 0.09 0.09 0.08 0.05 0.03 0.02 0.02 0.01 0.01 0.00 0.00 0.01 0.01 0.01 0.00 0.00 0.00 0.00 0.00 0.00 0.00 0.00 0.00 0.00 0.00 0.00 0.00 0.00 0.00 0.00 0.00 0.00 0.00 0.00 0.00 0.00 0.00 0.00 0.00
0.07 0.08 0.09 0.08 0.06 0.05 0.04 0.04 0.02 0.01 0.01 0.02 0.02 0.01 0.01 0.01 0.01 0.00 0.00 0.00 0.00 0.00 0.00 0.00 0.00 0.00 0.00 0.00 0.00 0.00 0.00 0.00 0.00 0.00 0.00 0.00 0.00 0.00 0.00 0.00 0.00 0.00 0.00 0.00
0.06 0.07 0.07 0.04 0.02 0.01 0.01 0.01 0.01 0.01 0.01 0.01 0.01 0.01 0.01 0.01 0.01 0.01 0.00 0.00 0.00 0.00 0.00 0.00 0.00 0.00 0.00 0.00 0.00 0.00 0.00 0.00 0.00 0.00 0.00 0.00 0.00 0.00 0.00 0.00 0.00 0.00 0.00 0.00
0.05 0.04 0.04 0.02 0.01 0.01 0.00 0.01 0.01 0.01 0.01 0.01 0.01 0.00 0.00 0.00 0.00 0.00 0.00 0.00 0.00 0.00 0.00 0.00 0.00 0.00 0.00 0.00 0.00 0.00 0.00 0.00 0.00 0.00 0.00 0.00 0.00 0.00 0.00 0.00 0.00 0.00 0.00 0.00
0.04 0.02 0.02 0.01 0.01 0.01 0.01 0.01 0.01 0.01 0.01 0.00 0.00 0.00 0.00 0.00 0.00 0.00 0.00 0.00 0.00 0.00 0.00 0.00 0.00 0.00 0.00 0.00 0.00 0.00 0.00 0.00 0.00 0.00 0.00 0.00 0.00 0.00 0.00 0.00 0.00 0.01 0.01 0.01
0.02 0.01 0.01 0.01 0.01 0.01 0.01 0.01 0.01 0.01 0.00 0.01 0.01 0.01 0.00 0.00 0.00 0.00 0.00 0.00 0.00 0.00 0.00 0.00 0.00 0.00 0.00 0.00 0.00 0.00 0.00 0.00 0.00 0.00 0.00 0.00 0.00 0.00 0.00 0.01 0.01 0.01 0.01 0.00
0.02 0.01 0.01 0.00 0.00 0.01 0.01 0.01 0.01 0.01 0.01 0.01 0.01 0.01 0.00 0.00 0.00 0.00 0.00 0.00 0.00 0.00 0.00 0.00 0.00 0.00 0.00 0.00 0.00 0.00 0.00 0.00 0.00 0.00 0.00 0.00 0.00 0.00 0.00 0.00 0.00 0.00 0.00 0.00
0.02 0.01 0.01 0.01 0.00 0.01 0.01 0.01 0.01 0.01 0.01 0.01 0.01 0.01 0.00 0.00 0.00 0.00 0.00 0.00 0.00 0.00 0.00 0.00 0.00 0.00 0.00 0.00 0.00 0.00 0.00 0.00 0.00 0.00 0.00 0.00 0.00 0.00 0.00 0.00 0.00 0.00 0.00 0.01
0.01 0.01 0.00 0.00 0.00 0.00 0.00 0.00 0.01 0.01 0.01 0.01 0.01 0.01 0.00 0.00 0.00 0.00 0.00 0.00 0.00 0.00 0.00 0.00 0.00 0.00 0.00 0.00 0.00 0.00 0.00 0.00 0.00 0.00 0.00 0.00 0.00 0.00 0.00 0.00 0.00 0.00 0.00 0.00
0.01 0.00 0.00 0.00 0.00 0.00 0.00 0.00 0.00 0.00 0.00 0.00 0.00 0.00 0.00 0.00 0.00 0.00 0.00 0.01 0.01 0.00 0.00 0.00 0.00 0.00 0.00 0.00 0.00 0.00 0.00 0.00 0.00 0.00 0.00 0.00 0.00 0.00 0.00 0.00 0.00 0.00 0.00 0.01
0.01 0.00 0.00 0.00 0.00 0.00 0.00 0.00 0.00 0.00 0.00 0.00 0.00 0.01 0.01 0.01 0.01 0.01 0.01 0.01 0.01 0.00 0.00 0.00 0.00 0.00 0.01 0.01 0.00 0.01 0.01 0.01 0.01 0.01 0.01 0.01 0.00 0.00 0.00 0.00 0.00 0.01 0.01 0.01
0.00 0.00 0.00 0.00 0.00 0.00 0.00 0.01 0.01 0.01 0.01 0.01 0.01 0.01 0.01 0.01 0.01 0.01 0.01 0.01 0.01 0.01 0.01 0.00 0.00 0.00 0.00 0.00 0.01 0.01 0.01 0.01 0.01 0.01 0.01 0.01 0.00 0.00 0.00 0.00 0.00 0.01 0.00 0.00
MSLP
1009.25 1009.40 1009.65 1009.97 1010.30 1010.56 1010.69 1010.62 1010.34 1009.86 1009.21 1008.49 1007.78 1007.18 1006.77 1006.58 1006.63 1006.87 1007.27 1007.75 1008.25 1008.71 1009.10 1009.43 1009.71 1009.98 1010.28 1010.62 1011.02 1011.48 1011.95 1012.42 1012.84 1013.19 1013.45 1013.64 1013.78 1013.90 1014.03 1014.22 1014.46 1014.78 1015.15 1015.55
1009.59 1009.62 1009.69 1009.77 1009.85 1009.87 1009.80 1009.61 1009.30 1008.89 1008.42 1007.93 1007.49 1007.16 1006.98 1006.96 1007.08 1007.33 1007.64 1007.97 1008.27 1008.54 1008.75 1008.93 1009.11 1009.32 1009.60 1009.96 1010.39 1010.89 1011.40 1011.91 1012.35 1012.72 1012.99 1013.18 1013.31 1013.42 1013.54 1013.71 1013.94 1014.24 1014.59 1014.97
1010.05 1009.94 1009.81 1009.67 1009.49 1009.28 1009.04 1008.75 1008.43 1008.09 1007.78 1007.53 1007.36 1007.30 1007.35 1007.49 1007.71 1007.96 1008.20 1008.40 1008.54 1008.62 1008.66 1008.69 1008.76 1008.90 1009.13 1009.48 1009.92 1010.43 1010.96 1011.48 1011.93 1012.30 1012.58 1012.76 1012.89 1013.00 1013.12 1013.28 1013.50 1013.79 1014.13 1014.49
1010.56 1010.29 1009.97 1009.61 1009.22 1008.81 1008.41 1008.03 1007.70 1007.45 1007.30 1007.26 1007.34 1007.52 1007.79 1008.11 1008.43 1008.71 1008.92 1009.04 1009.05 1008.99 1008.90 1008.80 1008.77 1008.83 1009.01 1009.32 1009.74 1010.23 1010.75 1011.25 1011.69 1012.04 1012.30 1012.48 1012.61 1012.71 1012.84 1013.00 1013.23 1013.51 1013.83 1014.17
1010.98 1010.56 1010.06 1009.51 1008.93 1008.37 1007.85 1007.42 1007.10 1006.93 1006.91 1007.06 1007.36 1007.76 1008.23 1008.72 1009.16 1009.50 1009.73 1009.82 1009.78 1009.64 1009.46 1009.28 1009.17 1009.17 1009.29 1009.55 1009.91 1010.36 1010.83 1011.28 1011.68 1012.01 1012.24 1012.41 1012.53 1012.64 1012.77 1012.94 1013.17 1013.45 1013.76 1014.08
1011.16 1010.60 1009.96 1009.26 1008.56 1007.89 1007.31 1006.86 1006.57 1006.48 1006.59 1006.90 1007.37 1007.97 1008.62 1009.25 1009.82 1010.26 1010.55 1010.67 1010.64 1010.49 1010.29 1010.08 1009.93 1009.88 1009.94 1010.14 1010.44 1010.82 1011.22 1011.61 1011.95 1012.23 1012.43 1012.58 1012.70 1012.81 1012.95 1013.13 1013.36 1013.63 1013.93 1014.21
1010.99 1010.31 1009.57 1008.79 1008.03 1007.34 1006.75 1006.33 1006.10 1006.10 1006.33 1006.77 1007.39 1008.14 1008.93 1009.71 1010.40 1010.95 1011.33 1011.53 1011.56 1011.46 1011.29 1011.10 1010.94 1010.87 1010.89 1011.03 1011.26 1011.55 1011.87 1012.18 1012.46 1012.68 1012.86 1012.99 1013.10 1013.22 1013.37 1013.55 1013.78 1014.04 1014.31 1014.55
1010.42 1009.67 1008.88 1008.10 1007.36 1006.71 1006.20 1005.86 1005.73 1005.83 1006.17 1006.72 1007.46 1008.31 1009.21 1010.09 1010.89 1011.55 1012.04 1012.34 1012.47 1012.46 1012.35 1012.21 1012.08 1012.00 1012.00 1012.08 1012.24 1012.45 1012.69 1012.92 1013.14 1013.32 1013.47 1013.59 1013.71 1013.83 1013.99 1014.18 1014.40 1014.63 1014.86 1015.06
1009.49 1008.72 1007.97 1007.26 1006.62 1006.10 1005.72 1005.52 1005.52 1005.75 1006.19 1006.83 1007.64 1008.56 1009.53 1010.48 1011.35 1012.10 1012.69 1013.09 1013.32 1013.41 1013.40 1013.32 1013.23 1013.16 1013.13 1013.17 1013.26 1013.40 1013.56 1013.73 1013.90 1014.05 1014.19 1014.31 1014.44 1014.58 1014.74 1014.93 1015.13 1015.34 1015.52 1015.67
1008.35 1007.64 1006.98 1006.41 1005.95 1005.61 1005.43 1005.41 1005.57 1005.92 1006.45 1007.16 1008.01 1008.96 1009.95 1010.93 1011.84 1012.64 1013.29 1013.78 1014.11 1014.29 1014.35 1014.34 1014.28 1014.22 1014.18 1014.18 1014.21 1014.29 1014.40 1014.53 1014.66 1014.80 1014.94 1015.08 1015.23 1015.39 1015.56 1015.74 1015.92 1016.09 1016.23 1016.31
1007.22 1006.61 1006.11 1005.74 1005.50 1005.39 1005.43 1005.61 1005.93 1006.41 1007.03 1007.77 1008.63 1009.56 1010.53 1011.49 1012.40 1013.21 1013.90 1014.44 1014.83 1015.07 1015.20 1015.23 1015.21 1015.15 1015.09 1015.05 1015.05 1015.08 1015.15 1015.25 1015.38 1015.52 1015.69 1015.86 1016.03 1016.22 1016.40 1016.57 1016.72 1016.84 1016.92 1016.95
1006.32 1005.87 1005.56 1005.41 1005.40 1005.54 1005.80 1006.17 1006.65 1007.22 1007.90 1008.66 1009.50 1010.38 1011.29 1012.20 1013.06 1013.85 1014.53 1015.09 1015.50 1015.79 1015.95 1016.01 1015.99 1015.94 1015.86 1015.79 1015.75 1015.76 1015.81 1015.90 1016.04 1016.21 1016.41 1016.62 1016.83 1017.03 1017.22 1017.38 1017.50 1017.58 1017.60 1017.56
1005.84 1005.56 1005.45 1005.51 1005.73 1006.08 1006.53 1007.06 1007.65 1008.31 1009.01 1009.75 1010.54 1011.36 1012.19 1013.02 1013.81 1014.55 1015.20 1015.75 1016.17 1016.46 1016.64 1016.71 1016.69 1016.63 1016.53 1016.45 1016.39 1016.37 1016.42 1016.52 1016.68 1016.89 1017.12 1017.37 1017.62 1017.84 1018.03 1018.17 1018.26 1018.28 1018.24 1018.14
1005.86 1005.74 1005.82 1006.06 1006.46 1006.97 1007.56 1008.19 1008.86 1009.55 1010.24 1010.95 1011.68 1012.41 1013.16 1013.90 1014.62 1015.30 1015.91 1016.43 1016.83 1017.12 1017.30 1017.37 1017.35 1017.28 1017.17 1017.07 1017.00 1016.99 1017.04 1017.16 1017.35 1017.59 1017.86 1018.15 1018.42 1018.66 1018.84 1018.96 1019.00 1018.97 1018.87 1018.71
1006.38 1006.41 1006.62 1006.99 1007.50 1008.11 1008.77 1009.45 1010.14 1010.82 1011.49 1012.14 1012.80 1013.45 1014.12 1014.78 1015.43 1016.05 1016.62 1017.11 1017.50 1017.79 1017.96 1018.03 1018.01 1017.93 1017.83 1017.72 1017.66 1017.65 1017.71 1017.86 1018.07 1018.34 1018.65 1018.96 1019.24 1019.48 1019.65 1019.73 1019.73 1019.64 1019.48 1019.25
1007.31 1007.43 1007.73 1008.17 1008.73 1009.36 1010.03 1010.72 1011.38 1012.02 1012.64 1013.23 1013.82 1014.41 1015.00 1015.60 1016.20 1016.78 1017.31 1017.78 1018.16 1018.44 1018.62 1018.69 1018.68 1018.62 1018.52 1018.43 1018.37 1018.38 1018.46 1018.63 1018.86 1019.15 1019.47 1019.79 1020.07 1020.29 1020.43 1020.47 1020.42 1020.28 1020.06 1019.78
1008.50 1008.68 1009.00 1009.45 1010.01 1010.62 1011.26 1011.89 1012.50 1013.09 1013.65 1014.18 1014.71 1015.24 1015.79 1016.34 1016.90 1017.45 1017.96 1018.42 1018.80 1019.08 1019.26 1019.36 1019.36 1019.32 1019.24 1019.17 1019.14 1019.17 1019.27 1019.45 1019.69 1019.99 1020.30 1020.61 1020.87 1021.06 1021.15 1021.15 1021.05 1020.85 1020.58 1020.26
1009.78 1009.98 1010.30 1010.73 1011.23 1011.79 1012.36 1012.93 1013.49 1014.01 1014.51 1015.00 1015.48 1015.97 1016.48 1017.00 1017.53 1018.06 1018.56 1019.00 1019.38 1019.67 1019.87 1019.98 1020.02 1020.01 1019.96 1019.93 1019.92 1019.97 1020.09 1020.27 1020.52 1020.80 1021.09 1021.36 1021.59 1021.73 1021.78 1021.73 1021.58 1021.34 1021.03 1020.67
1011.02 1011.22 1011.52 1011.90 1012.35 1012.84 1013.35 1013.85 1014.34 1014.82 1015.27 1015.72 1016.17 1016.63 1017.11 1017.61 1018.11 1018.61 1019.09 1019.53 1019.90 1020.20 1020.41 1020.55 1020.62 1020.64 1020.64 1020.64 1020.67 1020.74 1020.87 1021.06 1021.29 1021.54 1021.79 1022.02 1022.19 1022.28 1022.28 1022.19 1021.99 1021.72 1021.38 1021.00
1012.13 1012.33 1012.60 1012.94 1013.34 1013.78 1014.23 1014.68 1015.13 1015.56 1015.99 1016.41 1016.84 1017.27 1017.72 1018.19 1018.66 1019.13 1019.58 1020.00 1020.36 1020.65 1020.88 1021.04 1021.14 1021.20 1021.25 1021.29 1021.35 1021.45 1021.59 1021.76 1021.97 1022.19 1022.39 1022.56 1022.67 1022.71 1022.66 1022.52 1022.29 1022.00 1021.64 1021.25
1013.08 1013.28 1013.54 1013.86 1014.22 1014.62 1015.04 1015.46 1015.88 1016.30 1016.70 1017.10 1017.50 1017.92 1018.34 1018.76 1019.20 1019.62 1020.03 1020.41 1020.75 1021.03 1021.27 1021.45 1021.58 1021.69 1021.78 1021.86 1021.96 1022.08 1022.23 1022.39 1022.57 1022.74 1022.89 1023.00 1023.05 1023.03 1022.93 1022.76 1022.51 1022.21 1021.85 1021.47
1013.88 1014.10 1014.36 1014.67 1015.02 1015.40 1015.80 1016.21 1016.62 1017.02 1017.41 1017.79 1018.17 1018.55 1018.94 1019.32 1019.70 1020.08 1020.44 1020.78 1021.09 1021.36 1021.60 1021.80 1021.97 1022.12 1022.25 1022.38 1022.52 1022.66 1022.81 1022.96 1023.10 1023.23 1023.33 1023.38 1023.37 1023.30 1023.16 1022.97 1022.71 1022.40 1022.06 1021.69
1014.57 1014.80 1015.08 1015.39 1015.74 1016.12 1016.51 1016.91 1017.30 1017.70 1018.07 1018.44 1018.80 1019.15 1019.49 1019.83 1020.16 1020.49 1020.80 1021.11 1021.39 1021.66 1021.91 1022.13 1022.34 1022.53 1022.71 1022.88 1023.05 1023.21 1023.36 1023.50 1023.62 1023.70 1023.74 1023.74 1023.68 1023.57 1023.40 1023.19 1022.93 1022.64 1022.31 1021.97
1015.18 1015.43 1015.72 1016.04 1016.38 1016.75 1017.13 1017.51 1017.90 1018.27 1018.64 1018.99 1019.32 1019.64 1019.95 1020.25 1020.54 1020.83 1021.12 1021.40 1021.68 1021.95 1022.22 1022.47 1022.72 1022.96 1023.18 1023.39 1023.59 1023.77 1023.92 1024.04 1024.12 1024.17 1024.16 1024.11 1024.01 1023.87 1023.68 1023.46 1023.21 1022.93 1022.63 1022.31
1015.75 1016.01 1016.30 1016.60 1016.92 1017.27 1017.62 1017.98 1018.34 1018.70 1019.04 1019.37 1019.68 1019.99 1020.28 1020.56 1020.84 1021.12 1021.40 1021.68 1021.97 1022.26 1022.56 1022.85 1023.14 1023.41 1023.68 1023.92 1024.14 1024.32 1024.46 1024.56 1024.62 1024.62 1024.58 1024.49 1024.36 1024.19 1023.99 1023.77 1023.53 1023.27 1023.00 1022.70
1016.30 1016.55 1016.81 1017.08 1017.36 1017.65 1017.96 1018.28 1018.60 1018.93 1019.25 1019.56 1019.87 1020.17 1020.47 1020.76 1021.05 1021.35 1021.65 1021.96 1022.28 1022.61 1022.93 1023.26 1023.59 1023.89 1024.18 1024.44 1024.66 1024.84 1024.96 1025.03 1025.05 1025.02 1024.94 1024.81 1024.66 1024.47 1024.27 1024.06 1023.84 1023.60 1023.36 1023.08
1016.84 1017.05 1017.26 1017.47 1017.68 1017.91 1018.16 1018.42 1018.70 1018.99 1019.29 1019.59 1019.91 1020.23 1020.55 1020.88 1021.21 1021.55 1021.90 1022.26 1022.62 1022.98 1023.34 1023.70 1024.04 1024.37 1024.66 1024.90 1025.11 1025.25 1025.35 1025.38 1025.36 1025.29 1025.17 1025.02 1024.84 1024.65 1024.46 1024.25 1024.05 1023.84 1023.62 1023.38
Thickness
5702 5712 5716 5719 5723 5722 5718 5717 5713 5723 5729 5742 5749 5750 5751 5752 5751 5749 5747 5746 5745 5743 5742 5741 5739 5738 5736 5734 5732 5730 5726 5724 5723 5721 5719 5716 5714 5713 5711 5709 5707 5705 5703 5701
5694 5706 5708 5710 5719 5722 5722 5724 5723 5727 5731 5746 5747 5748 5747 5747 5746 5744 5742 5741 5741 5741 5740 5738 5737 5736 5735 5733 5732 5729 5726 5723 5722 5720 5717 5714 5712 5710 5708 5706 5704 5701 5699 5697
5674 5692 5695 5691 5713 5719 5722 5729 5728 5723 5735 5740 5738 5739 5739 5740 5740 5739 5738 5737 5736 5736 5736 5735 5735 5735 5734 5733 5730 5727 5724 5722 5719 5717 5715 5712 5710 5706 5703 5701 5699 5697 5695 5693
5661 5672 5664 5696 5719 5724 5723 5727 5731 5733 5734 5735 5733 5732 5733 5734 5733 5732 5732 5731 5730 5730 5730 5731 5732 5732 5732 5730 5727 5724 5721 5719 5716 5713 5711 5709 5706 5703 5700 5697 5694 5693 5690 5689
5649 5653 5668 5692 5707 5711 5709 5713 5725 5726 5726 5725 5726 5726 5723 5725 5726 5725 5725 5724 5723 5723 5723 5724 5726 5727 5726 5724 5721 5718 5715 5713 5712 5710 5707 5704 5701 5698 5695 5692 5690 5688 5685 5683
5645 5649 5654 5683 5702 5708 5705 5699 5719 5721 5719 5719 5720 5712 5711 5714 5715 5716 5717 5715 5714 5714 5715 5715 5716 5718 5718 5714 5713 5710 5708 5707 5706 5704 5701 5698 5695 5692 5689 5686 5683 5681 5678 5675
5641 5645 5661 5683 5693 5697 5682 5695 5712 5715 5715 5713 5712 5711 5707 5706 5704 5705 5704 5703 5703 5704 5704 5704 5706 5708 5706 5703 5701 5700 5699 5698 5696 5695 5693 5690 5686 5683 5680 5677 5673 5671 5667 5664
5637 5638 5651 5677 5682 5681 5686 5697 5703 5705 5706 5703 5701 5700 5697 5694 5692 5692 5691 5691 5691 5692 5691 5692 5694 5695 5693 5689 5689 5689 5689 5687 5685 5684 5682 5680 5676 5673 5670 5667 5663 5659 5656 5653
5638 5644 5658 5667 5671 5679 5684 5687 5692 5695 5695 5694 5691 5688 5684 5681 5678 5677 5678 5678 5679 5680 5679 5678 5680 5681 5679 5677 5677 5678 5676 5674 5671 5670 5668 5666 5663 5660 5657 5654 5651 5647 5644 5641
5638 5647 5654 5661 5667 5673 5678 5681 5684 5686 5686 5685 5681 5677 5672 5669 5665 5664 5664 5665 5666 5667 5665 5664 5665 5666 5665 5664 5665 5665 5662 5659 5657 5656 5654 5651 5649 5646 5644 5641 5638 5635 5632 5629
5635 5643 5650 5655 5660 5665 5669 5672 5673 5674 5673 5672 5669 5664 5661 5657 5653 5653 5653 5652 5652 5653 5651 5649 5650 5651 5651 5651 5652 5650 5647 5645 5642 5641 5639 5636 5633 5630 5628 5624 5623 5621 5618 5615
5635 5642 5643 5646 5652 5658 5660 5660 5662 5662 5659 5657 5657 5654 5650 5645 5642 5642 5641 5640 5640 5639 5638 5636 5637 5637 5637 5637 5638 5636 5633 5630 5628 5626 5623 5621 5618 5615 5612 5609 5607 5605 5603 5600
5636 5641 5642 5643 5647 5650 5651 5650 5650 5650 5649 5644 5642 5642 5639 5635 5632 5631 5630 5629 5627 5626 5625 5624 5624 5624 5623 5624 5624 5622 5619 5616 5613 5611 5609 5607 5604 5602 5598 5594 5592 5588 5586 5583
5637 5638 5636 5637 5638 5640 5642 5641 5640 5639 5637 5635 5633 5630 5628 5625 5622 5621 5618 5617 5616 5615 5614 5613 5613 5611 5610 5611 5610 5607 5605 5603 5600 5596 5594 5592 5589 5586 5583 5580 5576 5573 5569 5566
5631 5633 5632 5632 5632 5632 5632 5631 5629 5627 5625 5623 5622 5620 5618 5616 5613 5610 5608 5608 5607 5605 5603 5602 5601 5598 5598 5598 5597 5594 5592 5589 5585 5583 5580 5577 5574 5571 5568 5565 5561 5557 5554 5550
5625 5626 5626 5625 5624 5623 5622 5622 5620 5617 5616 5615 5613 5611 5609 5607 5604 5601 5599 5598 5597 5593 5591 5590 5589 5587 5586 5586 5584 5581 5578 5576 5573 5569 5566 5562 5559 5556 5553 5549 5545 5541 5538 5534
5619 5617 5617 5617 5616 5615 5615 5615 5613 5611 5609 5607 5605 5603 5600 5598 5595 5592 5589 5587 5586 5583 5581 5580 5578 5577 5575 5574 5571 5568 5565 5562 5559 5555 5551 5547 5544 5540 5536 5532 5529 5525 5521 5517
5615 5615 5614 5613 5611 5610 5608 5607 5606 5604 5602 5600 5598 5595 5592 5589 5585 5581 5579 5577 5575 5573 5570 5569 5568 5566 5564 5561 5558 5555 5551 5548 5544 5539 5535 5532 5528 5524 5520 5516 5512 5508 5504 5501
5609 5609 5608 5607 5606 5605 5603 5600 5598 5596 5594 5592 5589 5586 5583 5579 5576 5572 5570 5568 5565 5562 5559 5558 5557 5555 5552 5549 5546 5541 5538 5533 5529 5524 5520 5516 5512 5508 5504 5500 5496 5492 5488 5484
5602 5602 5601 5600 5598 5597 5594 5592 5590 5588 5585 5583 5580 5576 5572 5569 5566 5564 5561 5557 5554 5551 5549 5547 5545 5542 5539 5536 5533 5528 5524 5519 5515 5510 5505 5501 5496 5492 5488 5484 5480 5476 5472 5469
5594 5594 5593 5591 5589 5588 5586 5585 5583 5579 5576 5575 5572 5568 5564 5560 5557 5554 5551 5547 5543 5541 5538 5536 5533 5529 5526 5522 5519 5514 5510 5505 5500 5495 5490 5486 5481 5477 5473 5469 5465 5461 5457 5454
5585 5585 5583 5582 5581 5578 5576 5575 5574 5571 5568 5565 5562 5558 5554 5549 5546 5543 5539 5535 5532 5529 5526 5523 5520 5517 5513 5509 5504 5500 5495 5490 5485 5480 5476 5471 5467 5463 5459 5455 5451 5447 5443 5440
5575 5574 5573 5572 5570 5567 5565 5564 5563 5561 5558 5554 5550 5547 5543 5539 5535 5533 5528 5524 5521 5518 5514 5511 5507 5504 5499 5494 5489 5485 5480 5476 5471 5467 5462 5457 5453 5449 5445 5441 5437 5434 5430 5427
5564 5563 5562 5561 5560 5558 5554 5551 5550 5548 5546 5542 5539 5535 5532 5528 5523 5520 5517 5514 5510 5507 5502 5497 5494 5489 5485 5480 5475 5471 5466 5462 5457 5453 5449 5445 5441 5437 5432 5429 5425 5422 5419 5416
5554 5553 5553 5551 5549 5545 5541 5540 5538 5536 5534 5530 5527 5524 5521 5518 5514 5510 5506 5503 5498 5494 5489 5484 5480 5476 5471 5466 5461 5457 5453 5449 5445 5441 5437 5433 5429 5425 5421 5418 5414 5411 5408 5406
5544 5542 5540 5539 5536 5534 5532 5531 5528 5525 5523 5520 5516 5513 5510 5506 5503 5499 5495 5490 5486 5481 5476 5471 5467 5462 5458 5453 5449 5444 5441 5437 5433 5430 5426 5422 5418 5415 5411 5407 5404 5401 5399 5396
5533 5531 5529 5528 5526 5524 5523 5521 5518 5515 5513 5510 5506 5503 5499 5495 5491 5487 5483 5478 5473 5468 5464 5459 5455 5451 5446 5442 5438 5434 5430 5426 5423 5419 5415 5412 5408 5405 5401 5398 5395 5393 5391 5389